This demonstration page uses our WeatherBlox Daily Observations layout. Learn more.

39.29038, -76.61219

Hourly Observations for July 31, 2015

Temp ( °F °C ) Dew Point ( °F °C ) Humidity (%) Winds ( mph kmh ) Pressure ( in mb ) Visibility ( mi km ) Precip ( " mm )
12:54 am 00:54 Mostly Clear 79 26.1 67 19.4 67 67 undefined N/A 29.9 1013 N/A 0 0
1:54 am 01:54 undefined 78 25.6 65 18.3 64 64 undefined N/A 29.89 1012 N/A 0 0
2:54 am 02:54 undefined 77 25 63 17.2 62 62 undefined N/A 29.9 1013 N/A 0 0
3:54 am 03:54 undefined 76 24.4 61 16.1 60 60 undefined N/A 29.91 1013 N/A 0 0
4:54 am 04:54 undefined 76 24.4 59 15 56 56 undefined N/A 29.91 1013 N/A 0 0
5:54 am 05:54 undefined 75 23.9 59 15 58 58 undefined N/A 29.91 1013 N/A 0 0
6:54 am 06:54 undefined 75 23.9 59 15 58 58 undefined N/A 29.92 1013 N/A 0 0
7:54 am 07:54 undefined 78 25.6 60 15.6 54 54 undefined N/A 29.93 1014 N/A 0 0
8:54 am 08:54 undefined 80 26.7 60 15.6 51 51 undefined N/A 29.94 1014 N/A 0 0
9:54 am 09:54 undefined 83 28.3 59 15 44 44 undefined N/A 29.93 1014 N/A 0 0
10:54 am 10:54 undefined 84 28.9 59 15 43 43 undefined N/A 29.93 1014 N/A 0 0
11:54 am 11:54 Cloudy 86 30 58 14.4 39 39 undefined N/A 29.92 1013 N/A 0 0
12:54 pm 12:54 undefined 87 30.6 55 12.8 34 34 undefined N/A 29.91 1013 N/A 0 0
1:54 pm 13:54 undefined 87 30.6 54 12.2 32 32 undefined N/A 29.91 1013 N/A 0 0
2:54 pm 14:54 Mostly Cloudy 88 31.1 57 13.9 35 35 undefined N/A 29.89 1012 N/A 0 0
3:54 pm 15:54 undefined 89 31.7 55 12.8 31 31 undefined N/A 29.87 1012 N/A 0 0
4:54 pm 16:54 undefined 89 31.7 55 12.8 31 31 undefined N/A 29.86 1011 N/A 0 0
5:54 pm 17:54 undefined 88 31.1 57 13.9 35 35 undefined N/A 29.85 1011 N/A 0 0
6:54 pm 18:54 undefined 87 30.6 56 13.3 35 35 undefined N/A 29.84 1011 N/A 0 0
7:54 pm 19:54 Mostly Sunny 90 32.2 48 8.9 24 24 undefined N/A 30.03 1017 N/A 0 0
8:54 pm 20:54 undefined 84 28.9 58 14.4 41 41 undefined N/A 29.85 1011 N/A 0 0
9:54 pm 21:54 Mostly Cloudy 78 25.3 75 23.7 91 91 undefined N/A 29.88 1012 N/A 0 0
10:54 pm 22:54 undefined 81 27.2 61 16.1 51 51 undefined N/A 29.88 1012 N/A 0 0
11:54 pm 23:54 Mostly Cloudy 73 23 56 13.1 54 54 undefined N/A 29.63 1003 N/A 0 0

Powered by AerisWeather